Location: ???????
(55.4362°N, 38.1183°E)
Time: 01:11:24
(UTC+00:00)

Nauka - Visible Passes

Search period start: 27 September 2021 00:00
Search period end: 07 October 2021 00:00
Orbit: 417 x 423 km, 51.6° (Epoch: 26 September)

Date Brightness Start Highest point End Pass type
(mag) Time Alt. Az. Time Alt. Az. Time Alt. Az.
27 Sep ? 16:44:15 10° W 16:47:27 40° S 16:48:51 26° SE visible
27 Sep ? 18:21:13 10° WSW 18:21:49 13° WSW 18:21:49 13° WSW visible
28 Sep ? 15:57:07 10° WSW 16:00:20 43° S 16:03:25 11° ESE visible
28 Sep ? 17:33:54 10° W 17:36:24 24° SSW 17:36:24 24° SSW visible
29 Sep ? 16:46:43 10° W 16:49:43 30° SSW 16:51:03 22° SSE visible
30 Sep ? 15:59:37 10° W 16:02:45 35° SSW 16:05:47 11° SE visible
30 Sep ? 17:36:58 10° WSW 17:38:46 15° SW 17:38:46 15° SW visible
01 Oct ? 16:49:38 10° WSW 16:52:07 19° SSW 16:53:37 15° S visible
02 Oct ? 16:02:31 10° W 16:05:19 24° SSW 16:08:07 10° SSE visible
03 Oct ? 16:53:52 10° SW 16:54:37 11° SW 16:55:22 10° SSW visible
04 Oct ? 16:06:06 10° WSW 16:08:00 14° SSW 16:09:55 10° S visible
